Location: Raven Hill Discovery Center
(45.1336°N, 85.0553°W)
Time: 06:51:34
(UTC-05:00)

Daily predictions for brighter satellites

Satellite Brightness Start Highest point End
(mag) Time Altitude Azimuth Time Altitude Azimuth Time Altitude Azimuth
Ariane Rocket 3.6 17:23:29 10° S 17:28:30 64° WSW 17:33:33 10° NNW
IRS-1A Rocket 4.2 17:23:55 10° SSE 17:29:24 77° ENE 17:34:58 10° NNW
Cosmos 1295 Rocket 4.5 17:23:59 10° N 17:30:09 86° E 17:36:13 10° S
Cosmos 2218 Rocket 4.1 17:23:56 10° N 17:30:10 59° ENE 17:36:15 10° SSE
Genesis I 3.4 17:29:55 10° NNW 17:33:46 49° NE 17:37:34 10° SE
SPOT 3 Rocket 3.8 17:29:47 10° SE 17:34:43 47° ENE 17:39:41 10° N
Cosmos 2181 Rocket 4.2 17:29:54 10° S 17:36:17 88° W 17:42:47 10° N
CZ-3B DEB 2.2 17:33:03 10° SSW 17:36:26 59° SE 17:44:51 10° NE
BREEZE-M DEB (TANK) 4.0 17:27:12 10° W 17:37:32 56° NNW 17:41:52 10° ENE
COSMOS 2487 3.4 17:34:31 10° N 17:37:41 28° ENE 17:40:50 10° SE
Cosmos 1833 Rocket 3.5 17:34:10 10° N 17:39:05 29° NE 17:43:58 10° ESE
USA 32 4.0 17:36:14 10° S 17:41:23 65° E 17:46:34 10° N
CZ-3A R/B 3.4 17:39:04 10° WSW 17:43:31 77° NNW 18:06:15 11° ENE
Cosmos 2082 Rocket 2.7 17:38:55 10° NNW 17:44:07 36° NE 17:49:20 10° ESE
CZ-2C R/B 3.8 17:40:09 10° NNE 17:44:36 81° WNW 17:49:07 10° SSW
Abrixas 2.4 17:42:48 10° WNW 17:45:46 70° NNE 17:48:43 10° ESE
Cosmos 1544 Rocket 3.6 17:44:56 10° N 17:49:26 89° ENE 17:53:54 10° S
Cosmos 1743 4.0 17:48:42 10° NNE 17:51:36 20° ENE 17:54:27 10° ESE
Timation 2 Rocket 4.4 17:45:08 10° NNW 17:51:47 51° NE 17:58:28 10° SE
Cosmos 1500 3.6 17:50:26 10° N 17:54:04 39° ENE 17:57:42 10° SSE
COSMO-SKYMED 1 3.9 17:51:40 10° NE 17:54:56 20° E 17:58:10 10° SE
Cosmos 1975 Rocket 4.1 17:51:59 10° SSW 17:56:08 46° WNW 18:00:21 10° N
BREEZE-M DEB (TANK) 1.6 17:55:43 10° WSW 17:57:55 60° NNW 17:59:30 17° ENE
Cosmos 2263 Rocket 4.4 17:56:49 10° W 18:00:26 17° NW 18:04:05 10° N
Cosmos 1975 2.8 17:57:24 10° N 18:01:27 62° ENE 18:05:27 10° SSE
IDEFIX/ARIANE 42P 2.5 17:56:30 10° SSE 18:01:41 78° ENE 18:06:53 10° N
Cosmos 1484 Rocket 3.4 18:00:48 10° SE 18:04:05 30° ENE 18:07:23 10° N
CZ-4 R/B 1.7 18:02:39 10° S 18:06:49 72° WSW 18:10:56 10° NNW
Thor Agena Rocket 3.5 18:01:44 10° NNE 18:06:58 72° ESE 18:12:13 10° S
MSX 3.8 18:02:29 10° SSE 18:08:08 63° ENE 18:13:49 10° N
Meteor 1-12 Rocket 4.4 18:04:51 10° NNW 18:10:41 86° W 18:16:36 10° S
Cosmos 1536 Rocket 3.5 18:08:17 10° S 18:12:44 84° E 18:17:15 10° N
MOS 1 4.4 18:07:08 10° SSE 18:12:47 80° WSW 18:18:28 10° NNW
Cosmos 1025 Rocket 4.3 18:09:49 10° SE 18:13:04 20° E 18:13:52 19° ENE
Cosmos 921 Rocket 3.7 18:10:01 10° SSE 18:13:49 32° E 18:16:16 18° NE
ISS -2.0 18:13:27 10° WNW 18:16:24 30° NNW 18:17:57 20° NE
SMAP 3.3 18:12:26 10° S 18:17:05 75° WSW 18:21:46 10° NNW
SL-24 DEB 4.2 18:14:05 10° N 18:18:48 62° E 18:23:26 10° S
SL-8 R/B 3.7 18:14:25 10° WSW 18:19:11 89° NNW 18:22:14 23° ENE
Meteor 2-21 Rocket 4.5 18:15:38 10° N 18:21:46 60° ENE 18:27:49 10° SSE
YAOGAN 1 2.8 18:17:27 10° S 18:21:46 71° WSW 18:26:07 10° NNW
Nadezhda 3 Rocket 4.1 18:17:07 10° SSE 18:23:09 57° E 18:29:18 10° NNE
Cosmos 1844 Rocket 3.9 18:18:28 10° WSW 18:23:39 38° NW 18:28:55 10° NNE
Meteor 2-4 Rocket 4.3 18:21:50 10° SSE 18:26:27 30° E 18:29:02 20° NE
NOSS 2-1 (E) 4.2 18:23:47 10° S 18:27:16 32° ESE 18:28:28 27° E
Cosmos 1812 3.8 18:26:18 10° SSW 18:30:00 46° WNW 18:33:45 10° N
GRACE-2 4.0 18:28:25 10° SSE 18:31:04 47° E 18:31:04 47° E
GRACE-1 4.0 18:28:50 10° SSE 18:31:32 49° E 18:31:33 49° E
EP 1 4.1 18:29:03 10° SSW 18:31:36 66° SE 18:31:55 57° E
CZ-3A R/B 4.3 18:17:13 10° WSW 18:33:09 50° NNW 18:36:54 20° NE
USA 234 3.3 18:37:48 21° NE 18:42:28 81° NW 18:48:59 10° WSW
SKYMED 2 3.5 18:40:13 19° NNE 18:43:16 63° E 18:47:34 10° S
Tiangong 1 1.7 18:43:59 10° WSW 18:46:53 41° SSE 18:47:00 41° SSE
NOAA 12 4.1 18:46:46 10° SSE 18:51:54 55° ENE 18:57:02 10° N
Cosmos 2297 3.6 18:48:24 10° SSW 18:54:03 88° WNW 18:57:52 22° NNE
FALCON 9 R/B 4.2 18:29:45 10° WSW 18:54:46 49° S 19:00:04 21° ESE
Cosmos 407 Rocket 3.7 18:52:10 10° N 18:57:03 42° ENE 18:57:09 42° ENE
NOSS 3-4 (A) 3.7 18:50:21 10° NW 18:57:19 70° NE 19:03:39 15° SE
NOSS 3-4 (C) 3.7 18:50:27 10° NW 18:57:25 70° NE 19:03:37 15° SE
Cosmos 2056 Rocket 3.8 18:52:34 10° S 18:57:37 44° ESE 18:58:18 42° E
Okean 1-7 Rocket 3.6 18:54:41 10° S 18:59:12 86° W 19:02:25 19° N
Cosmos 1346 Rocket 3.8 18:55:36 10° SSW 18:59:19 44° WNW 19:02:41 12° N
Cosmos 2278 Rocket 3.4 18:59:43 10° SW 19:04:59 39° NW 19:09:48 12° N
Timation 1 Rocket 4.3 18:59:19 10° SSW 19:05:17 89° NW 19:08:38 28° NNE
Cosmos 1934 Rocket 3.8 19:03:22 10° N 19:09:36 76° E 19:15:53 10° SSE
Cosmos 1624 Rocket 3.9 19:05:41 10° S 19:10:47 61° ESE 19:11:26 56° ENE
METEOR-M 4.0 19:05:58 10° SSE 19:11:16 69° ENE 19:16:36 10° N
Intercosmos 25 4.5 19:12:25 10° NNW 19:15:24 35° W 19:18:28 10° SSW
Cosmos 1371 Rocket 3.9 19:10:49 10° SSW 19:16:11 83° ESE 19:17:49 46° NNE
Meteor 2-8 Rocket 4.3 19:15:25 10° S 19:21:27 74° E 19:24:52 28° NNE
Cosmos 1833 Rocket 3.6 19:17:49 10° NW 19:23:16 49° WSW 19:28:38 10° S
GEOS 3 Rocket 3.5 19:23:58 44° SSE 19:25:40 83° SW 19:30:50 10° NW
Cosmos 1606 Rocket 3.6 19:21:36 10° N 19:26:06 79° W 19:30:34 10° S
Cosmos 2082 Rocket 3.6 19:23:01 10° NW 19:28:14 39° WSW 19:33:26 10° S
COSMO-SKYMED 1 3.8 19:28:48 21° NNW 19:31:15 40° WNW 19:35:19 10° SW
Meteor 1-28 Rocket 4.5 19:36:06 39° SW 19:36:06 39° SW 19:38:44 10° SSW
Cosmos 1190 Rocket 4.3 19:41:43 10° NNW 19:46:55 64° WSW 19:47:50 53° SSW
Cosmos 1025 Rocket 4.3 19:46:17 10° SW 19:50:23 38° WNW 19:50:50 37° WNW
Cosmos 1605 Rocket 4.0 19:44:54 10° N 19:51:13 76° W 19:57:24 10° S
BREEZE-M R/B 4.1 19:47:43 10° W 19:55:01 55° NW 19:55:01 55° NW
Cosmos 2369 Rocket 4.4 20:03:57 10° S 20:04:41 14° S 20:04:41 14° S
CZ-3B DEB 3.8 20:05:44 10° WNW 20:11:38 49° N 20:13:40 44° NNE
USA 234 4.2 20:25:09 38° NNW 20:25:09 38° NNW 20:30:55 10° W
BREEZE-M DEB (TANK) 4.5 20:15:34 10° WNW 20:26:36 46° NNW 20:26:36 46° NNW
